NGN2603 EDDF-EKCH

Flight info

Callsign NGN2603
Flight time 1h 9m
Altitude 37000
Route MARUN3W MARUN Y150 TOLGI DCT SAS DCT MAKEL N851 GESKA Z711 MONAK
Aircraft A320/M-SDE3FGHIRWY/LB1

Departure

Time 2026-05-04 16:38
Airport Frankfurt Main Airport (EDDF)

Arrival

Time 2026-05-04 17:47
Airport Copenhagen Kastrup Airport (EKCH)
Time Latitude Longitude Altitude Speed Heading
2026-05-04 15:56 50.04929 8.59254 366 ft 0 kts 341°
2026-05-04 16:29 50.04901 8.59281 368 ft 2 kts 339°
2026-05-04 16:30 50.04864 8.59299 368 ft 1 kts 341°
2026-05-04 16:31 50.04868 8.59297 368 ft 0 kts 341°
2026-05-04 16:33 50.04875 8.59293 369 ft 1 kts 341°
2026-05-04 16:33 50.04887 8.59287 370 ft 0 kts 341°
2026-05-04 16:34 50.04855 8.59246 368 ft 5 kts 213°
2026-05-04 16:34 50.04837 8.59217 368 ft 3 kts 233°
2026-05-04 16:35 50.04754 8.58888 372 ft 16 kts 249°
2026-05-04 16:35 50.04638 8.58756 370 ft 0 kts 184°
2026-05-04 16:36 50.04618 8.58751 371 ft 3 kts 192°
2026-05-04 16:36 50.04476 8.58547 370 ft 22 kts 245°
2026-05-04 16:37 50.04452 8.58449 371 ft 18 kts 250°
2026-05-04 16:37 50.04304 8.57826 365 ft 100 kts 249°
2026-05-04 16:37 50.03568 8.54785 742 ft 179 kts 251°
2026-05-04 16:38 50.02664 8.51070 2151 ft 193 kts 249°
2026-05-04 16:39 49.99126 8.47776 4202 ft 215 kts 190°
2026-05-04 16:39 49.96224 8.47120 5861 ft 208 kts 192°
2026-05-04 16:40 49.93280 8.45793 6966 ft 235 kts 197°
2026-05-04 16:40 49.90854 8.42493 8828 ft 247 kts 246°
2026-05-04 16:41 49.91330 8.37211 10674 ft 272 kts 304°
2026-05-04 16:41 49.96761 8.32835 12270 ft 330 kts 335°
2026-05-04 16:42 50.03569 8.28983 12970 ft 355 kts 350°
2026-05-04 16:43 50.08496 8.29727 13657 ft 364 kts 19°
2026-05-04 16:43 50.13323 8.32272 15210 ft 370 kts 18°
2026-05-04 16:43 50.15786 8.33541 15907 ft 375 kts 18°
2026-05-04 16:44 50.25932 8.38835 18635 ft 394 kts 17°
2026-05-04 16:45 50.31174 8.41614 19866 ft 402 kts 18°
2026-05-04 16:46 50.39206 8.45999 21655 ft 412 kts 18°
2026-05-04 16:46 50.44667 8.48988 22783 ft 419 kts 18°
2026-05-04 16:47 50.50233 8.51961 23834 ft 426 kts 16°
2026-05-04 16:47 50.55942 8.54679 24757 ft 432 kts 14°
2026-05-04 16:48 50.64675 8.58750 26125 ft 441 kts 15°
2026-05-04 16:48 50.67621 8.60161 26554 ft 444 kts 15°
2026-05-04 16:49 50.73527 8.63019 27388 ft 450 kts 15°
2026-05-04 16:49 50.79469 8.66487 28193 ft 458 kts 27°
2026-05-04 16:50 50.84529 8.72554 28962 ft 465 kts 47°
2026-05-04 16:50 50.88588 8.80680 29738 ft 470 kts 53°
2026-05-04 16:51 50.92544 8.88924 30439 ft 476 kts 53°
2026-05-04 16:51 50.94554 8.93116 30748 ft 478 kts 53°
2026-05-04 16:51 50.98584 9.01575 31371 ft 483 kts 53°
2026-05-04 16:52 51.01986 9.08733 31916 ft 485 kts 53°
2026-05-04 16:52 51.04012 9.13011 32342 ft 484 kts 53°
2026-05-04 16:53 51.08186 9.21370 33179 ft 482 kts 44°
2026-05-04 16:53 51.16552 9.29803 34375 ft 473 kts 15°
2026-05-04 16:54 51.19719 9.31137 34717 ft 469 kts
2026-05-04 16:55 51.32457 9.35529 36094 ft 467 kts
2026-05-04 16:55 51.38786 9.37745 36742 ft 465 kts
2026-05-04 16:56 51.45089 9.39948 36983 ft 461 kts
2026-05-04 16:56 51.54424 9.43214 36970 ft 459 kts
2026-05-04 16:57 51.63781 9.46502 36963 ft 459 kts
2026-05-04 16:58 51.76260 9.50916 36947 ft 459 kts
2026-05-04 17:00 51.94128 9.62526 36951 ft 467 kts 24°
2026-05-04 17:01 52.08580 9.74560 36958 ft 467 kts 24°
2026-05-04 17:02 52.20159 9.84261 36962 ft 469 kts 24°
2026-05-04 17:03 52.28418 9.91201 36966 ft 469 kts 24°
2026-05-04 17:03 52.37166 9.98391 36976 ft 469 kts 23°
2026-05-04 17:04 52.48821 10.08038 36958 ft 470 kts 23°
2026-05-04 17:05 52.60472 10.17757 36973 ft 469 kts 23°
2026-05-04 17:06 52.69192 10.25077 36972 ft 468 kts 23°
2026-05-04 17:07 52.76905 10.31582 36978 ft 468 kts 23°
2026-05-04 17:07 52.83676 10.37319 36983 ft 467 kts 23°
2026-05-04 17:08 52.92342 10.44686 36983 ft 467 kts 23°
2026-05-04 17:09 52.98112 10.49592 36981 ft 466 kts 23°
2026-05-04 17:09 53.03882 10.54502 36981 ft 466 kts 23°
2026-05-04 17:10 53.18272 10.66899 36979 ft 466 kts 23°
2026-05-04 17:11 53.24024 10.71874 36966 ft 466 kts 23°
2026-05-04 17:12 53.32638 10.79344 36993 ft 464 kts 23°
2026-05-04 17:13 53.46928 10.91807 36966 ft 463 kts 23°
2026-05-04 17:14 53.58323 11.01829 36997 ft 461 kts 23°
2026-05-04 17:14 53.63999 11.06831 36851 ft 461 kts 23°
2026-05-04 17:15 53.66822 11.09325 36588 ft 460 kts 23°
2026-05-04 17:15 53.72491 11.14362 36069 ft 461 kts 23°
2026-05-04 17:16 53.78162 11.19403 35585 ft 460 kts 23°
2026-05-04 17:16 53.86665 11.26994 34848 ft 460 kts 22°
2026-05-04 17:17 53.89488 11.29531 34387 ft 458 kts 22°
2026-05-04 17:17 53.97853 11.37051 32848 ft 450 kts 22°
2026-05-04 17:18 54.00611 11.39538 32310 ft 448 kts 22°
2026-05-04 17:18 54.06101 11.44507 31270 ft 446 kts 21°
2026-05-04 17:19 54.11567 11.49454 30272 ft 444 kts 21°
2026-05-04 17:19 54.17001 11.54385 29170 ft 440 kts 21°
2026-05-04 17:20 54.22365 11.59268 28093 ft 434 kts 21°
2026-05-04 17:20 54.27650 11.64114 27033 ft 427 kts 21°
2026-05-04 17:20 54.30256 11.66512 26523 ft 424 kts 21°
2026-05-04 17:21 54.35418 11.71252 25521 ft 417 kts 21°
2026-05-04 17:21 54.40494 11.75919 24545 ft 411 kts 21°
2026-05-04 17:22 54.42990 11.78281 24084 ft 409 kts 23°
2026-05-04 17:22 54.45434 11.80759 23635 ft 407 kts 25°
2026-05-04 17:23 54.52545 11.88443 22009 ft 400 kts 26°
2026-05-04 17:23 54.54887 11.90985 21474 ft 393 kts 26°
2026-05-04 17:23 54.59411 11.95835 20449 ft 379 kts 26°
2026-05-04 17:24 54.61653 11.98211 19949 ft 378 kts 26°
2026-05-04 17:24 54.68349 12.05321 18526 ft 375 kts 27°
2026-05-04 17:25 54.70565 12.07688 18018 ft 374 kts 27°
2026-05-04 17:25 54.74977 12.12414 16947 ft 372 kts 27°
2026-05-04 17:26 54.79360 12.17124 15913 ft 369 kts 28°
2026-05-04 17:26 54.85593 12.23866 14422 ft 338 kts 27°
2026-05-04 17:27 54.89532 12.28123 13449 ft 331 kts 27°
2026-05-04 17:27 54.93463 12.32371 12404 ft 335 kts 27°
2026-05-04 17:28 54.97434 12.36679 11377 ft 337 kts 28°
2026-05-04 17:29 55.03389 12.43173 9913 ft 333 kts 28°
2026-05-04 17:29 55.09014 12.49343 8953 ft 299 kts 28°
2026-05-04 17:30 55.14255 12.55102 8970 ft 296 kts 28°
2026-05-04 17:31 55.17742 12.58932 8959 ft 296 kts 28°
2026-05-04 17:31 55.22945 12.64579 8160 ft 289 kts 22°
2026-05-04 17:32 55.26662 12.66908 7452 ft 278 kts 13°
2026-05-04 17:33 55.31909 12.69901 6836 ft 254 kts 13°
2026-05-04 17:33 55.33563 12.70853 6712 ft 248 kts 13°
2026-05-04 17:34 55.38485 12.73660 5813 ft 248 kts 13°
2026-05-04 17:34 55.40125 12.74594 5425 ft 248 kts 14°
2026-05-04 17:35 55.44832 12.77291 5005 ft 219 kts 14°
2026-05-04 17:35 55.47685 12.78929 5008 ft 217 kts 13°
2026-05-04 17:35 55.49119 12.79750 5009 ft 216 kts 13°
2026-05-04 17:36 55.50552 12.80574 4955 ft 217 kts 13°
2026-05-04 17:36 55.52000 12.81405 4620 ft 221 kts 14°
2026-05-04 17:36 55.53467 12.82251 4230 ft 222 kts 14°
2026-05-04 17:36 55.54909 12.83084 4009 ft 213 kts 14°
2026-05-04 17:37 55.56302 12.83923 4008 ft 212 kts 17°
2026-05-04 17:37 55.57681 12.84879 4008 ft 213 kts 18°
2026-05-04 17:38 55.63014 12.89117 4018 ft 216 kts 32°
2026-05-04 17:38 55.64171 12.90832 4010 ft 218 kts 37°
2026-05-04 17:38 55.65284 12.92192 4008 ft 214 kts 24°
2026-05-04 17:39 55.67932 12.94462 4007 ft 213 kts 20°
2026-05-04 17:39 55.69280 12.95576 4009 ft 214 kts 20°
2026-05-04 17:39 55.70626 12.96693 4009 ft 214 kts 20°
2026-05-04 17:40 55.71972 12.97808 4005 ft 214 kts 20°
2026-05-04 17:40 55.73324 12.98921 4003 ft 214 kts 20°
2026-05-04 17:40 55.74673 13.00033 4004 ft 214 kts 20°
2026-05-04 17:40 55.76023 13.01124 4003 ft 212 kts 15°
2026-05-04 17:41 55.77436 13.01313 4009 ft 202 kts 340°
2026-05-04 17:41 55.78573 13.00001 4013 ft 196 kts 304°
2026-05-04 17:41 55.79137 12.97816 4007 ft 196 kts 283°
2026-05-04 17:41 55.79134 12.95410 4013 ft 197 kts 263°
2026-05-04 17:42 55.78840 12.93067 4008 ft 199 kts 250°
2026-05-04 17:42 55.78083 12.91005 3994 ft 203 kts 228°
2026-05-04 17:42 55.77025 12.89322 3820 ft 204 kts 224°
2026-05-04 17:42 55.75957 12.87662 3561 ft 204 kts 225°
2026-05-04 17:43 55.74891 12.85999 3291 ft 204 kts 225°
2026-05-04 17:43 55.73840 12.84357 3012 ft 198 kts 225°
2026-05-04 17:43 55.72822 12.82768 2754 ft 192 kts 225°
2026-05-04 17:43 55.71837 12.81230 2518 ft 184 kts 225°
2026-05-04 17:44 55.70901 12.79771 2266 ft 174 kts 225°
2026-05-04 17:44 55.70016 12.78391 2025 ft 165 kts 225°
2026-05-04 17:44 55.69164 12.77061 1793 ft 162 kts 225°
2026-05-04 17:44 55.68327 12.75757 1577 ft 159 kts 225°
2026-05-04 17:45 55.67499 12.74466 1363 ft 158 kts 225°
2026-05-04 17:45 55.66702 12.73229 1146 ft 146 kts 226°
2026-05-04 17:45 55.65961 12.72085 956 ft 137 kts 225°
2026-05-04 17:45 55.65265 12.71020 747 ft 129 kts 226°
2026-05-04 17:46 55.64594 12.70002 567 ft 126 kts 226°
2026-05-04 17:46 55.63932 12.68969 405 ft 128 kts 225°
2026-05-04 17:46 55.63258 12.67937 267 ft 129 kts 225°
2026-05-04 17:46 55.62602 12.66885 107 ft 127 kts 226°
2026-05-04 17:47 55.61993 12.65890 21 ft 102 kts 220°
2026-05-04 17:47 55.61616 12.65303 16 ft 30 kts 231°
2026-05-04 17:47 55.61628 12.64995 16 ft 26 kts 292°
2026-05-04 17:47 55.61725 12.64821 19 ft 17 kts 328°
2026-05-04 17:48 55.61785 12.64785 19 ft 0 kts 360°
2026-05-04 17:48 55.61786 12.64785 19 ft 2 kts 360°
2026-05-04 17:48 55.61852 12.64791 18 ft 13 kts
2026-05-04 17:49 55.61941 12.64862 20 ft 14 kts 33°
2026-05-04 17:49 55.61990 12.64917 20 ft 11 kts 32°
2026-05-04 17:49 55.62045 12.64984 21 ft 9 kts 35°
2026-05-04 17:49 55.62065 12.65009 21 ft 0 kts 35°
2026-05-04 17:50 55.62075 12.65022 22 ft 10 kts 35°
2026-05-04 17:50 55.62135 12.65095 24 ft 9 kts 34°
2026-05-04 17:50 55.62181 12.65147 25 ft 7 kts 32°
2026-05-04 17:51 55.62196 12.65164 24 ft 1 kts 32°
2026-05-04 17:51 55.62238 12.65195 23 ft 12 kts 11°
2026-05-04 17:51 55.62327 12.65196 22 ft 14 kts 358°
2026-05-04 17:51 55.62439 12.65187 21 ft 18 kts 357°
2026-05-04 17:52 55.62578 12.65175 19 ft 22 kts 356°
2026-05-04 17:52 55.62671 12.65237 19 ft 12 kts
2026-05-04 17:52 55.62738 12.65251 19 ft 0 kts 10°